RCF6636 ZMCK-ZKPY

Flight info

Callsign RCF6636
Flight time 2h 2m
Altitude 33100
Route MENUG2D MENUG B339 POLHO W33 HOT DCT DHN A575 PU V59 ISKEM DCT DDG A345 GASAN GAS11A
Aircraft MD11/H-SDE1E2E3FGHIJ2J3J4J5M1RWXY/LB1D1

Departure

Time 2026-04-21 18:48
Airport Ulaanbaatar Chinggis Khaan International Airport (ZMCK)

Arrival

Time 2026-04-21 20:51
Airport Pyongyang Sunan International Airport (ZKPY)
Time Latitude Longitude Altitude Speed Heading
2026-04-21 17:56 47.64947 106.82511 4513 ft 0 kts 14°
2026-04-21 18:32 47.64936 106.82507 4511 ft 2 kts 14°
2026-04-21 18:33 47.64921 106.82501 4509 ft 2 kts 14°
2026-04-21 18:33 47.64907 106.82497 4507 ft 2 kts
2026-04-21 18:33 47.64891 106.82500 4506 ft 2 kts 344°
2026-04-21 18:33 47.64878 106.82508 4504 ft 2 kts 330°
2026-04-21 18:34 47.64865 106.82521 4503 ft 2 kts 315°
2026-04-21 18:34 47.64856 106.82538 4502 ft 2 kts 305°
2026-04-21 18:34 47.64846 106.82555 4501 ft 2 kts 318°
2026-04-21 18:34 47.64835 106.82569 4501 ft 2 kts 325°
2026-04-21 18:35 47.64827 106.82577 4500 ft 1 kts 330°
2026-04-21 18:35 47.64823 106.82580 4500 ft 0 kts 331°
2026-04-21 18:39 47.64823 106.82579 4500 ft 0 kts 331°
2026-04-21 18:39 47.64830 106.82574 4500 ft 2 kts 331°
2026-04-21 18:39 47.64844 106.82557 4501 ft 3 kts 309°
2026-04-21 18:40 47.64858 106.82530 4502 ft 2 kts 304°
2026-04-21 18:40 47.64867 106.82502 4504 ft 3 kts 293°
2026-04-21 18:40 47.64873 106.82477 4504 ft 4 kts 288°
2026-04-21 18:40 47.64885 106.82415 4505 ft 7 kts 285°
2026-04-21 18:41 47.64903 106.82319 4505 ft 12 kts 285°
2026-04-21 18:41 47.64926 106.82181 4503 ft 15 kts 285°
2026-04-21 18:41 47.64955 106.82020 4501 ft 17 kts 284°
2026-04-21 18:41 47.64987 106.81839 4499 ft 19 kts 284°
2026-04-21 18:42 47.65017 106.81668 4498 ft 7 kts 278°
2026-04-21 18:42 47.64999 106.81580 4496 ft 10 kts 240°
2026-04-21 18:42 47.64966 106.81463 4492 ft 13 kts 266°
2026-04-21 18:42 47.64977 106.81390 4491 ft 4 kts 283°
2026-04-21 18:43 47.64986 106.81331 4491 ft 6 kts 284°
2026-04-21 18:43 47.65000 106.81251 4490 ft 9 kts 285°
2026-04-21 18:43 47.65019 106.81142 4490 ft 11 kts 285°
2026-04-21 18:43 47.65041 106.81020 4490 ft 12 kts 285°
2026-04-21 18:44 47.65062 106.80900 4491 ft 11 kts 285°
2026-04-21 18:44 47.65083 106.80781 4492 ft 11 kts 285°
2026-04-21 18:44 47.65102 106.80675 4495 ft 9 kts 285°
2026-04-21 18:44 47.65117 106.80587 4498 ft 8 kts 285°
2026-04-21 18:45 47.65135 106.80485 4499 ft 11 kts 285°
2026-04-21 18:45 47.65157 106.80363 4501 ft 12 kts 284°
2026-04-21 18:45 47.65180 106.80231 4503 ft 13 kts 284°
2026-04-21 18:45 47.65206 106.80085 4505 ft 15 kts 285°
2026-04-21 18:46 47.65236 106.79916 4503 ft 17 kts 285°
2026-04-21 18:46 47.65232 106.79767 4502 ft 14 kts 233°
2026-04-21 18:46 47.65140 106.79704 4494 ft 8 kts 195°
2026-04-21 18:46 47.65093 106.79739 4492 ft 8 kts 117°
2026-04-21 18:47 47.65084 106.79775 4492 ft 0 kts 107°
2026-04-21 18:47 47.65084 106.79776 4492 ft 0 kts 107°
2026-04-21 18:47 47.65065 106.79878 4493 ft 27 kts 105°
2026-04-21 18:48 47.64956 106.80494 4484 ft 97 kts 104°
2026-04-21 18:48 47.64729 106.81792 4480 ft 158 kts 104°
2026-04-21 18:48 47.64407 106.83586 4547 ft 194 kts 103°
2026-04-21 18:48 47.64104 106.85471 5191 ft 188 kts 103°
2026-04-21 18:49 47.63785 106.87298 5851 ft 184 kts 105°
2026-04-21 18:49 47.63448 106.89112 6354 ft 185 kts 105°
2026-04-21 18:49 47.63219 106.90340 6587 ft 187 kts 105°
2026-04-21 18:49 47.62754 106.92876 7034 ft 193 kts 105°
2026-04-21 18:50 47.62412 106.94805 7387 ft 196 kts 104°
2026-04-21 18:50 47.62064 106.96777 7694 ft 205 kts 104°
2026-04-21 18:50 47.61688 106.98876 7977 ft 216 kts 105°
2026-04-21 18:50 47.61296 107.01022 8518 ft 216 kts 105°
2026-04-21 18:51 47.60894 107.03222 8814 ft 232 kts 105°
2026-04-21 18:51 47.60457 107.05632 8978 ft 256 kts 105°
2026-04-21 18:51 47.59977 107.08303 9240 ft 281 kts 104°
2026-04-21 18:51 47.59457 107.11201 9760 ft 297 kts 104°
2026-04-21 18:52 47.58918 107.14193 10330 ft 313 kts 104°
2026-04-21 18:52 47.58331 107.17448 10605 ft 341 kts 104°
2026-04-21 18:52 47.57698 107.20982 10858 ft 370 kts 104°
2026-04-21 18:52 47.57019 107.24789 11199 ft 394 kts 104°
2026-04-21 18:53 47.56300 107.28822 11925 ft 407 kts 103°
2026-04-21 18:53 47.55682 107.32905 12738 ft 415 kts 99°
2026-04-21 18:53 47.55143 107.37094 13573 ft 422 kts 98°
2026-04-21 18:53 47.54620 107.41400 14422 ft 429 kts 98°
2026-04-21 18:54 47.54078 107.45779 15255 ft 436 kts 98°
2026-04-21 18:54 47.53509 107.50191 16075 ft 443 kts 99°
2026-04-21 18:54 47.52915 107.54726 16876 ft 450 kts 99°
2026-04-21 18:54 47.52326 107.59239 17643 ft 457 kts 99°
2026-04-21 18:55 47.51925 107.62334 18167 ft 461 kts 98°
2026-04-21 18:55 47.50912 107.68559 19094 ft 471 kts 111°
2026-04-21 18:55 47.49403 107.72878 19837 ft 475 kts 126°
2026-04-21 18:55 47.47240 107.76531 20554 ft 477 kts 141°
2026-04-21 18:56 47.44558 107.79350 21268 ft 476 kts 154°
2026-04-21 18:56 47.41694 107.81781 21911 ft 483 kts 150°
2026-04-21 18:56 47.39021 107.84826 22585 ft 494 kts 138°
2026-04-21 18:56 47.36788 107.88710 23276 ft 501 kts 126°
2026-04-21 18:57 47.34875 107.93041 23924 ft 507 kts 122°
2026-04-21 18:57 47.33035 107.97528 24622 ft 512 kts 121°
2026-04-21 18:57 47.31175 108.01981 25299 ft 517 kts 122°
2026-04-21 18:57 47.29231 108.06463 25980 ft 521 kts 123°
2026-04-21 18:58 47.27237 108.10944 26583 ft 527 kts 124°
2026-04-21 18:58 47.25190 108.15492 27203 ft 532 kts 124°
2026-04-21 18:58 47.23112 108.20087 27835 ft 536 kts 124°
2026-04-21 18:58 47.21025 108.24711 28421 ft 540 kts 124°
2026-04-21 18:59 47.18981 108.29269 29196 ft 539 kts 124°
2026-04-21 18:59 47.16911 108.33902 29992 ft 539 kts 123°
2026-04-21 18:59 47.14867 108.38487 30759 ft 537 kts 123°
2026-04-21 18:59 47.12847 108.43019 31523 ft 535 kts 123°
2026-04-21 19:00 47.10821 108.47582 32243 ft 534 kts 123°
2026-04-21 19:00 47.08794 108.52158 32909 ft 530 kts 122°
2026-04-21 19:00 47.06793 108.56665 32958 ft 529 kts 123°
2026-04-21 19:01 47.02796 108.65678 33002 ft 527 kts 123°
2026-04-21 19:01 46.98774 108.74666 32993 ft 528 kts 124°
2026-04-21 19:02 46.94652 108.83482 32988 ft 527 kts 125°
2026-04-21 19:02 46.90529 108.92310 32985 ft 527 kts 124°
2026-04-21 19:03 46.86415 109.01240 32981 ft 527 kts 124°
2026-04-21 19:03 46.82335 109.10091 32981 ft 528 kts 124°
2026-04-21 19:04 46.78252 109.18956 32979 ft 528 kts 124°
2026-04-21 19:04 46.74155 109.27879 32979 ft 527 kts 123°
2026-04-21 19:05 46.70091 109.36744 32977 ft 528 kts 123°
2026-04-21 19:05 46.66017 109.45649 32982 ft 529 kts 123°
2026-04-21 19:06 46.61969 109.54507 32979 ft 529 kts 123°
2026-04-21 19:06 46.57905 109.63427 32980 ft 529 kts 123°
2026-04-21 19:07 46.53846 109.72312 32966 ft 529 kts 124°
2026-04-21 19:07 46.49651 109.81080 32972 ft 529 kts 126°
2026-04-21 19:08 46.45417 109.89801 32970 ft 530 kts 125°
2026-04-21 19:08 46.41209 109.98607 32971 ft 530 kts 125°
2026-04-21 19:09 46.37029 110.07350 32971 ft 530 kts 125°
2026-04-21 19:09 46.32840 110.16119 32974 ft 530 kts 125°
2026-04-21 19:10 46.28667 110.24892 32973 ft 530 kts 125°
2026-04-21 19:10 46.24488 110.33668 32972 ft 529 kts 124°
2026-04-21 19:11 46.20338 110.42433 32978 ft 529 kts 124°
2026-04-21 19:11 46.16187 110.51171 32983 ft 530 kts 124°
2026-04-21 19:12 46.12727 110.58498 32981 ft 529 kts 124°
2026-04-21 19:12 46.07899 110.68713 32981 ft 530 kts 125°
2026-04-21 19:13 46.03682 110.77361 32977 ft 529 kts 127°
2026-04-21 19:13 45.99374 110.85952 32983 ft 529 kts 127°
2026-04-21 19:14 45.95085 110.94562 32980 ft 529 kts 126°
2026-04-21 19:14 45.90838 111.03146 32981 ft 529 kts 126°
2026-04-21 19:15 45.86568 111.11781 32976 ft 529 kts 126°
2026-04-21 19:15 45.82320 111.20395 32977 ft 529 kts 126°
2026-04-21 19:16 45.78095 111.28975 32969 ft 529 kts 126°
2026-04-21 19:16 45.73857 111.37584 32976 ft 529 kts 126°
2026-04-21 19:17 45.67513 111.50516 32977 ft 529 kts 125°
2026-04-21 19:17 45.63295 111.59119 32983 ft 529 kts 125°
2026-04-21 19:18 45.59104 111.67686 32976 ft 529 kts 126°
2026-04-21 19:18 45.54784 111.76182 32975 ft 528 kts 127°
2026-04-21 19:19 45.50409 111.84618 32976 ft 528 kts 127°
2026-04-21 19:19 45.46070 111.93042 32976 ft 528 kts 127°
2026-04-21 19:20 45.41759 112.01466 32978 ft 528 kts 127°
2026-04-21 19:20 45.37441 112.09909 32987 ft 529 kts 127°
2026-04-21 19:21 45.33133 112.18346 32981 ft 529 kts 127°
2026-04-21 19:21 45.28812 112.26829 32993 ft 529 kts 126°
2026-04-21 19:22 45.24497 112.35300 32991 ft 529 kts 126°
2026-04-21 19:22 45.20194 112.43781 32993 ft 529 kts 126°
2026-04-21 19:23 45.15918 112.52200 32989 ft 530 kts 126°
2026-04-21 19:23 45.11615 112.60705 32992 ft 529 kts 126°
2026-04-21 19:24 45.07303 112.69064 32991 ft 530 kts 128°
2026-04-21 19:24 45.02856 112.77416 32988 ft 530 kts 128°
2026-04-21 19:25 44.98460 112.85818 32985 ft 530 kts 127°
2026-04-21 19:25 44.94087 112.94150 32988 ft 530 kts 128°
2026-04-21 19:26 44.89715 113.02498 32989 ft 529 kts 127°
2026-04-21 19:26 44.85380 113.10802 32998 ft 529 kts 127°
2026-04-21 19:27 44.81010 113.19167 32995 ft 530 kts 126°
2026-04-21 19:27 44.77266 113.28138 32994 ft 531 kts 114°
2026-04-21 19:28 44.74412 113.37649 33001 ft 531 kts 111°
2026-04-21 19:28 44.71508 113.47227 33000 ft 531 kts 113°
2026-04-21 19:29 44.68525 113.56696 33003 ft 531 kts 113°
2026-04-21 19:29 44.65526 113.66186 33011 ft 532 kts 114°
2026-04-21 19:30 44.62537 113.75719 32998 ft 533 kts 113°
2026-04-21 19:30 44.59571 113.85229 32999 ft 533 kts 113°
2026-04-21 19:31 44.56623 113.94713 33001 ft 533 kts 113°
2026-04-21 19:31 44.53675 114.04227 32998 ft 534 kts 113°
2026-04-21 19:32 44.50729 114.13771 33007 ft 534 kts 112°
2026-04-21 19:32 44.47793 114.23332 32995 ft 535 kts 113°
2026-04-21 19:33 44.44854 114.32880 33015 ft 535 kts 112°
2026-04-21 19:33 44.41921 114.42472 33007 ft 536 kts 113°
2026-04-21 19:34 44.38816 114.51950 33006 ft 537 kts 115°
2026-04-21 19:34 44.35674 114.61420 33012 ft 537 kts 114°
2026-04-21 19:35 44.31031 114.75662 32992 ft 537 kts 115°
2026-04-21 19:36 44.27953 114.85135 33010 ft 538 kts 115°
2026-04-21 19:36 44.24892 114.94596 32999 ft 539 kts 115°
2026-04-21 19:37 44.21814 115.04116 33013 ft 539 kts 114°
2026-04-21 19:37 44.18749 115.13653 33012 ft 539 kts 114°
2026-04-21 19:38 44.15693 115.23148 33013 ft 539 kts 114°
2026-04-21 19:38 44.13143 115.31119 33007 ft 540 kts 114°
2026-04-21 19:39 44.09576 115.42282 33016 ft 541 kts 114°
2026-04-21 19:39 44.06472 115.51817 33016 ft 541 kts 115°
2026-04-21 19:40 44.03280 115.61233 33016 ft 541 kts 115°
2026-04-21 19:40 44.00114 115.70739 32998 ft 541 kts 116°
2026-04-21 19:41 43.96957 115.80199 33014 ft 541 kts 116°
2026-04-21 19:41 43.93819 115.89663 33004 ft 542 kts 115°
2026-04-21 19:42 43.90664 115.99197 33008 ft 542 kts 115°
2026-04-21 19:42 43.87485 116.08640 33002 ft 541 kts 116°
2026-04-21 19:43 43.84277 116.18021 32999 ft 541 kts 116°
2026-04-21 19:43 43.81063 116.27457 33006 ft 541 kts 116°
2026-04-21 19:44 43.77874 116.36871 33010 ft 542 kts 116°
2026-04-21 19:44 43.74688 116.46306 33012 ft 543 kts 116°
2026-04-21 19:45 43.71487 116.55805 33006 ft 544 kts 116°
2026-04-21 19:45 43.68319 116.65243 33005 ft 544 kts 116°
2026-04-21 19:46 43.65141 116.74713 32995 ft 544 kts 116°
2026-04-21 19:46 43.61959 116.84247 33005 ft 544 kts 116°
2026-04-21 19:47 43.58810 116.93681 33003 ft 545 kts 116°
2026-04-21 19:47 43.55654 117.03165 32995 ft 545 kts 116°
2026-04-21 19:48 43.52342 117.12579 33002 ft 544 kts 118°
2026-04-21 19:48 43.49014 117.21857 33001 ft 544 kts 118°
2026-04-21 19:49 43.45703 117.31236 33004 ft 544 kts 117°
2026-04-21 19:49 43.42419 117.40592 32998 ft 545 kts 117°
2026-04-21 19:50 43.39669 117.48412 32999 ft 545 kts 117°
2026-04-21 19:50 43.35851 117.59317 32997 ft 545 kts 117°
2026-04-21 19:51 43.32580 117.68685 32984 ft 545 kts 117°
2026-04-21 19:51 43.29319 117.78059 32989 ft 544 kts 117°
2026-04-21 19:52 43.26063 117.87417 32981 ft 544 kts 117°
2026-04-21 19:52 43.22816 117.96799 32981 ft 545 kts 117°
2026-04-21 19:53 43.19548 118.06224 32975 ft 545 kts 117°
2026-04-21 19:53 43.16177 118.15466 32976 ft 545 kts 119°
2026-04-21 19:54 43.12735 118.24727 32977 ft 547 kts 119°
2026-04-21 19:54 43.09326 118.34043 32981 ft 548 kts 118°
2026-04-21 19:55 43.05936 118.43337 32974 ft 548 kts 118°
2026-04-21 19:55 43.02531 118.52687 32973 ft 549 kts 118°
2026-04-21 19:56 42.99140 118.62018 32974 ft 549 kts 118°
2026-04-21 19:56 42.95773 118.71332 32965 ft 549 kts 118°
2026-04-21 19:57 42.92392 118.80660 32966 ft 549 kts 118°
2026-04-21 19:57 42.89017 118.90052 32967 ft 550 kts 118°
2026-04-21 19:58 42.85623 118.99448 32976 ft 551 kts 118°
2026-04-21 19:58 42.82260 119.08846 32981 ft 550 kts 119°
2026-04-21 19:59 42.78749 119.18053 32976 ft 549 kts 120°
2026-04-21 19:59 42.75223 119.27219 32962 ft 549 kts 120°
2026-04-21 20:00 42.71722 119.36459 32949 ft 549 kts 119°
2026-04-21 20:00 42.68224 119.45712 32950 ft 550 kts 120°
2026-04-21 20:01 42.64733 119.54960 32950 ft 549 kts 119°
2026-04-21 20:01 42.61266 119.64178 32943 ft 549 kts 119°
2026-04-21 20:02 42.58369 119.71889 32937 ft 549 kts 120°
2026-04-21 20:02 42.54325 119.82683 32946 ft 550 kts 120°
2026-04-21 20:03 42.50867 119.91930 32944 ft 549 kts 119°
2026-04-21 20:03 42.47414 120.01193 32954 ft 550 kts 120°
2026-04-21 20:04 42.43973 120.10376 32963 ft 549 kts 120°
2026-04-21 20:04 42.40371 120.19508 32966 ft 549 kts 121°
2026-04-21 20:05 42.36762 120.28582 32965 ft 550 kts 121°
2026-04-21 20:05 42.33195 120.37694 32966 ft 550 kts 121°
2026-04-21 20:06 42.29604 120.46864 32960 ft 549 kts 121°
2026-04-21 20:06 42.26047 120.55962 32966 ft 550 kts 121°
2026-04-21 20:07 42.22494 120.65089 32969 ft 551 kts 121°
2026-04-21 20:07 42.19525 120.72726 32946 ft 550 kts 122°
2026-04-21 20:08 42.15379 120.83392 32958 ft 549 kts 121°
2026-04-21 20:08 42.11864 120.92499 32950 ft 549 kts 122°
2026-04-21 20:09 42.08346 121.01565 32946 ft 549 kts 121°
2026-04-21 20:09 42.04814 121.10682 32948 ft 548 kts 122°
2026-04-21 20:10 42.01129 121.19663 32954 ft 548 kts 123°
2026-04-21 20:10 41.97445 121.28621 32940 ft 548 kts 122°
2026-04-21 20:11 41.93823 121.37606 32942 ft 548 kts 122°
2026-04-21 20:11 41.90177 121.46588 32938 ft 548 kts 122°
2026-04-21 20:12 41.86529 121.55621 32939 ft 549 kts 122°
2026-04-21 20:12 41.83517 121.63084 32943 ft 549 kts 122°
2026-04-21 20:13 41.79273 121.73640 32925 ft 548 kts 123°
2026-04-21 20:13 41.75657 121.82642 32937 ft 549 kts 123°
2026-04-21 20:14 41.72044 121.91665 32942 ft 549 kts 123°
2026-04-21 20:14 41.68447 122.00658 32937 ft 549 kts 123°
2026-04-21 20:15 41.65072 122.09790 32928 ft 554 kts 114°
2026-04-21 20:15 41.63285 122.19873 32944 ft 562 kts 99°
2026-04-21 20:16 41.62283 122.30200 32945 ft 563 kts 99°
2026-04-21 20:16 41.61112 122.40565 32937 ft 564 kts 101°
2026-04-21 20:17 41.59829 122.50937 32945 ft 564 kts 101°
2026-04-21 20:17 41.58568 122.61204 32941 ft 565 kts 101°
2026-04-21 20:18 41.57535 122.69863 32916 ft 565 kts 102°
2026-04-21 20:18 41.56097 122.81994 32933 ft 566 kts 101°
2026-04-21 20:19 41.54886 122.92340 32933 ft 568 kts 101°
2026-04-21 20:19 41.53678 123.02745 32937 ft 569 kts 101°
2026-04-21 20:20 41.52481 123.13170 32939 ft 569 kts 101°
2026-04-21 20:20 41.50885 123.23476 32942 ft 562 kts 114°
2026-04-21 20:21 41.47285 123.32497 32962 ft 545 kts 135°
2026-04-21 20:21 41.44783 123.36229 32962 ft 532 kts 146°
2026-04-21 20:21 41.41934 123.39288 32965 ft 517 kts 156°
2026-04-21 20:21 41.38834 123.41626 32949 ft 501 kts 167°
2026-04-21 20:22 41.35625 123.43188 32941 ft 483 kts 177°
2026-04-21 20:22 41.25954 123.46342 32916 ft 492 kts 169°
2026-04-21 20:23 41.19620 123.50275 32909 ft 503 kts 163°
2026-04-21 20:23 41.13406 123.54604 32916 ft 504 kts 163°
2026-04-21 20:24 41.07190 123.58845 32911 ft 502 kts 163°
2026-04-21 20:24 41.00991 123.63027 32909 ft 503 kts 163°
2026-04-21 20:25 40.94768 123.67242 32889 ft 501 kts 164°
2026-04-21 20:25 40.88541 123.71489 32891 ft 499 kts 164°
2026-04-21 20:26 40.82418 123.75918 32906 ft 507 kts 159°
2026-04-21 20:26 40.76510 123.81242 32890 ft 514 kts 155°
2026-04-21 20:27 40.70692 123.86751 32898 ft 514 kts 155°
2026-04-21 20:27 40.67789 123.89444 32504 ft 517 kts 155°
2026-04-21 20:27 40.64819 123.92171 31700 ft 519 kts 155°
2026-04-21 20:28 40.61843 123.94900 30889 ft 521 kts 154°
2026-04-21 20:28 40.58862 123.97637 30024 ft 524 kts 154°
2026-04-21 20:28 40.55904 124.00378 29159 ft 527 kts 153°
2026-04-21 20:28 40.52918 124.03157 28278 ft 530 kts 152°
2026-04-21 20:29 40.49880 124.05969 27338 ft 533 kts 152°
2026-04-21 20:29 40.46847 124.08765 26415 ft 536 kts 151°
2026-04-21 20:29 40.43792 124.11596 25492 ft 538 kts 150°
2026-04-21 20:29 40.40741 124.14443 24644 ft 539 kts 150°
2026-04-21 20:30 40.37716 124.17256 23855 ft 537 kts 149°
2026-04-21 20:30 40.34660 124.20077 23039 ft 536 kts 149°
2026-04-21 20:30 40.31631 124.22884 22215 ft 534 kts 149°
2026-04-21 20:30 40.28702 124.25851 21370 ft 532 kts 141°
2026-04-21 20:31 40.26193 124.29392 20564 ft 527 kts 128°
2026-04-21 20:31 40.24317 124.33446 19849 ft 517 kts 116°
2026-04-21 20:31 40.23111 124.37798 19137 ft 505 kts 105°
2026-04-21 20:31 40.22289 124.42188 18467 ft 493 kts 102°
2026-04-21 20:32 40.21541 124.46529 17830 ft 482 kts 104°
2026-04-21 20:32 40.20556 124.50620 17202 ft 474 kts 111°
2026-04-21 20:32 40.19110 124.54524 16765 ft 472 kts 121°
2026-04-21 20:32 40.17380 124.58111 16285 ft 469 kts 126°
2026-04-21 20:33 40.15517 124.61613 15799 ft 465 kts 126°
2026-04-21 20:33 40.13653 124.65063 15301 ft 461 kts 127°
2026-04-21 20:33 40.11844 124.68468 14810 ft 457 kts 126°
2026-04-21 20:33 40.10059 124.71925 14277 ft 453 kts 125°
2026-04-21 20:34 40.08341 124.75307 13810 ft 449 kts 125°
2026-04-21 20:34 40.06630 124.78684 13352 ft 445 kts 125°
2026-04-21 20:34 40.04907 124.82061 12946 ft 443 kts 125°
2026-04-21 20:34 40.03205 124.85375 12490 ft 440 kts 125°
2026-04-21 20:35 40.01516 124.88684 12015 ft 436 kts 125°
2026-04-21 20:35 39.99838 124.91984 11675 ft 434 kts 125°
2026-04-21 20:35 39.98172 124.95257 11239 ft 429 kts 125°
2026-04-21 20:35 39.96542 124.98447 10798 ft 423 kts 126°
2026-04-21 20:36 39.94910 125.01644 10300 ft 414 kts 126°
2026-04-21 20:36 39.93371 125.04672 9954 ft 398 kts 125°
2026-04-21 20:36 39.91874 125.07622 9682 ft 382 kts 125°
2026-04-21 20:36 39.90422 125.10477 9450 ft 367 kts 126°
2026-04-21 20:37 39.89036 125.13197 9256 ft 352 kts 125°
2026-04-21 20:37 39.87714 125.15799 9082 ft 338 kts 125°
2026-04-21 20:37 39.86450 125.18295 8944 ft 325 kts 125°
2026-04-21 20:37 39.85214 125.20727 8856 ft 315 kts 125°
2026-04-21 20:38 39.84014 125.23092 8724 ft 313 kts 125°
2026-04-21 20:38 39.82815 125.25454 8629 ft 309 kts 125°
2026-04-21 20:38 39.81651 125.27757 8535 ft 305 kts 125°
2026-04-21 20:38 39.80478 125.30069 8464 ft 307 kts 125°
2026-04-21 20:39 39.79295 125.32398 8284 ft 312 kts 125°
2026-04-21 20:39 39.78108 125.34744 8015 ft 309 kts 125°
2026-04-21 20:39 39.76949 125.37038 7709 ft 298 kts 124°
2026-04-21 20:39 39.75827 125.39267 7419 ft 287 kts 125°
2026-04-21 20:40 39.74746 125.41401 7173 ft 277 kts 125°
2026-04-21 20:40 39.73682 125.43404 6967 ft 268 kts 131°
2026-04-21 20:40 39.72330 125.45027 6778 ft 259 kts 153°
2026-04-21 20:40 39.70718 125.46030 6565 ft 256 kts 165°
2026-04-21 20:41 39.69031 125.46720 6300 ft 253 kts 169°
2026-04-21 20:41 39.67348 125.47317 6094 ft 251 kts 170°
2026-04-21 20:41 39.65660 125.47940 5890 ft 246 kts 169°
2026-04-21 20:41 39.64058 125.48597 5702 ft 238 kts 167°
2026-04-21 20:42 39.62528 125.49281 5544 ft 229 kts 166°
2026-04-21 20:42 39.61049 125.49968 5481 ft 223 kts 165°
2026-04-21 20:42 39.59587 125.50647 5319 ft 224 kts 166°
2026-04-21 20:42 39.58098 125.51334 5145 ft 225 kts 166°
2026-04-21 20:43 39.56632 125.51998 4938 ft 223 kts 166°
2026-04-21 20:43 39.55163 125.52660 4766 ft 221 kts 166°
2026-04-21 20:43 39.53724 125.53309 4593 ft 220 kts 166°
2026-04-21 20:43 39.52272 125.53971 4441 ft 220 kts 166°
2026-04-21 20:44 39.50834 125.54672 4297 ft 221 kts 162°
2026-04-21 20:44 39.49420 125.55447 4041 ft 220 kts 162°
2026-04-21 20:44 39.48033 125.56155 3851 ft 205 kts 165°
2026-04-21 20:44 39.46723 125.56744 3770 ft 192 kts 168°
2026-04-21 20:45 39.45472 125.57244 3681 ft 188 kts 169°
2026-04-21 20:45 39.44212 125.57718 3593 ft 187 kts 170°
2026-04-21 20:45 39.42968 125.58186 3528 ft 184 kts 169°
2026-04-21 20:45 39.41729 125.58662 3214 ft 186 kts 168°
2026-04-21 20:46 39.40503 125.59148 2917 ft 180 kts 169°
2026-04-21 20:46 39.39318 125.59622 2761 ft 177 kts 168°
2026-04-21 20:46 39.38123 125.60098 2542 ft 179 kts 168°
2026-04-21 20:46 39.36951 125.60561 2270 ft 173 kts 168°
2026-04-21 20:47 39.35821 125.61009 2133 ft 168 kts 168°
2026-04-21 20:47 39.34705 125.61454 1955 ft 165 kts 168°
2026-04-21 20:47 39.33638 125.61874 1991 ft 159 kts 168°
2026-04-21 20:47 39.32562 125.62297 2019 ft 163 kts 169°
2026-04-21 20:48 39.31462 125.62722 1942 ft 162 kts 168°
2026-04-21 20:48 39.30403 125.63142 1882 ft 160 kts 168°
2026-04-21 20:48 39.29318 125.63568 1661 ft 163 kts 168°
2026-04-21 20:48 39.28232 125.63985 1414 ft 158 kts 167°
2026-04-21 20:49 39.27199 125.64383 1235 ft 155 kts 166°
2026-04-21 20:49 39.26160 125.64819 1013 ft 155 kts 162°
2026-04-21 20:49 39.25137 125.65260 811 ft 154 kts 168°
2026-04-21 20:49 39.24153 125.65601 600 ft 153 kts 163°
2026-04-21 20:50 39.23141 125.66009 404 ft 152 kts 164°
2026-04-21 20:50 39.22119 125.66414 185 ft 151 kts 162°
2026-04-21 20:50 39.21169 125.66797 128 ft 133 kts 163°
2026-04-21 20:50 39.20330 125.67118 128 ft 110 kts 163°
2026-04-21 20:51 39.19681 125.67371 128 ft 75 kts 162°
2026-04-21 20:51 39.19356 125.67498 128 ft 35 kts 163°
2026-04-21 20:51 39.19184 125.67567 128 ft 20 kts 156°
2026-04-21 20:51 39.19098 125.67700 128 ft 17 kts 102°
2026-04-21 20:52 39.19139 125.67824 128 ft 15 kts 17°
2026-04-21 20:52 39.19224 125.67810 127 ft 12 kts 343°
2026-04-21 20:52 39.19311 125.67774 127 ft 14 kts 342°
2026-04-21 20:52 39.19416 125.67732 127 ft 16 kts 343°
2026-04-21 20:53 39.19535 125.67686 127 ft 19 kts 343°
2026-04-21 20:53 39.19670 125.67635 127 ft 21 kts 344°
2026-04-21 20:53 39.19820 125.67574 127 ft 23 kts 343°
2026-04-21 20:53 39.19983 125.67509 127 ft 25 kts 343°
2026-04-21 20:54 39.20162 125.67439 127 ft 25 kts 343°
2026-04-21 20:54 39.20269 125.67281 127 ft 24 kts 300°
2026-04-21 20:54 39.20367 125.67090 128 ft 24 kts 300°
2026-04-21 20:54 39.20356 125.66878 128 ft 24 kts 253°
2026-04-21 20:55 39.20324 125.66772 128 ft 6 kts 220°
2026-04-21 20:55 39.20273 125.66760 128 ft 8 kts 178°
2026-04-21 20:55 39.20210 125.66777 128 ft 10 kts 163°
2026-04-21 20:55 39.20134 125.66807 128 ft 12 kts 163°
2026-04-21 20:56 39.20044 125.66843 128 ft 14 kts 162°
2026-04-21 20:56 39.20016 125.66853 128 ft 0 kts 162°
2026-04-21 20:59 39.20024 125.66850 128 ft 2 kts 154°
2026-04-21 20:59 39.20036 125.66839 128 ft 2 kts 133°
2026-04-21 21:00 39.20045 125.66824 128 ft 2 kts 115°
2026-04-21 21:00 39.20049 125.66805 128 ft 2 kts 97°
2026-04-21 21:00 39.20049 125.66786 128 ft 2 kts 79°
2026-04-21 21:00 39.20045 125.66768 128 ft 1 kts 69°
2026-04-21 21:01 39.20044 125.66766 128 ft 0 kts 70°